Regional Weather Roundup
Issued by NWS

Home | Current Version | Previous Version | Text Only | Print | Product List | Glossary Off
Versions: 1 2 3 4 5 6 7 8 9 10 11 12 13 14 15 16 17 18 19 20 21 22 23 24 25 26 27 28 29 30 31 32 33 34 35 36 37 38 39 40 41 42 43 44 45 46 47 48 49 50

000
ASUS43 KMKX 070711
RWRWI

WISCONSIN REGIONAL WEATHER ROUNDUP
NATIONAL WEATHER SERVICE MILWAUKEE/SULLIVAN WI
100 AM CST WED DEC 07 2016

NOTE: "FAIR" INDICATES FEW OR NO CLOUDS BELOW 12,000 FEET WITH NO
SIGNIFICANT WEATHER AND/OR OBSTRUCTIONS TO VISIBILITY.

WIZ001-002-006>008-014>016-023>028-070800-
NORTHWEST WISCONSIN

CITY           SKY/WX    TMP DP  RH WIND       PRES   REMARKS
SUPERIOR ARPT  FLURRIES  22  14  71 W18G26    29.65R WCI   8
ASHLAND        CLOUDY    21  14  74 SW17G28   29.64R WCI   7
HAYWARD        LGT SNOW  19  12  74 SW16G26   29.69R WCI   4
SIREN          FLURRIES  19  13  75 W13G30    29.75R WCI   7
CUMBERLAND     FLURRIES  19  12  73 W23G31    29.74S WCI   2
RICE LAKE      FLURRIES  19  13  76 SW14G22   29.78R WCI   6
CHETEK         LGT SNOW  18  14  82 MISG      29.79R
LADYSMITH      FLURRIES  19  15  81 SW16G23   29.75R WCI   5
EAU CLAIRE     FLURRIES  18  11  74 W16G30    29.83R WCI   3
MENOMONIE      FLURRIES  19  13  76 SW17      29.84R WCI   4
NEW RICHMOND   FLURRIES  19  11  73 W17G25    29.82R WCI   4
OSCEOLA        FLURRIES  20  13  73 W16G26    29.85R WCI   6
$$

WIZ003>005-009-010-017-018-070800-
NORTH CENTRAL WISCONSIN

CITY           SKY/WX    TMP DP  RH WIND       PRES   REMARKS
MANITOWISH WTR FLURRIES  18  14  84 SW14G21   29.63R WCI   4
ARBOR VITAE    LGT SNOW  19  14  79 W16G24    29.65R WCI   5
WOODRUFF       LGT SNOW  19  14  79 W16G24    29.65R WCI   5
RHINELANDER    LGT SNOW  19  14  81 SW17G31   29.68R WCI   4
EAGLE RIVER    LGT SNOW  19  13  77 SW17G24   29.64R WCI   4
LAND O LAKES   LGT SNOW  20  14  77 SW14G23   29.63R WCI   6
PHILLIPS       LGT SNOW  18  14  84 SW14G23   29.68R WCI   4
TOMAHAWK       LGT SNOW  18  12  79 SW7G23    29.72R WCI   9
MEDFORD        LGT SNOW  16  11  78 SW18G24   29.74R WCI   0
MERRILL        FLURRIES  19  13  78 W15       29.75R WCI   5
$$

WIZ029-030-035-036-043>047-070800-
CENTRAL WISCONSIN

CITY           SKY/WX    TMP DP  RH WIND       PRES   REMARKS
WAUSAU         CLOUDY    20  13  74 W16       29.76R WCI   6
MOSINEE        CLOUDY    21  18  86 SW20G31   29.78R WCI   6
MARSHFIELD     FLURRIES  19  12  74 W17G24    29.78R WCI   4
STEVENS POINT  CLOUDY    20  13  73 SW20G28   29.80S WCI   5
WAUPACA        CLOUDY    27  18  68 W16G25    29.82S WCI  15
WAUTOMA        CLOUDY    24  16  71 W20G25    29.85R WCI  10
WISC RAPIDS    CLOUDY    22  14  71 W14G22    29.83R WCI   9
CAMP DOUGLAS   PTCLDY    20  13  72 W15       29.87R WCI   7
$$

WIZ011>013-019>022-031-037>040-048>050-070800-
NORTHEAST WISCONSIN

CITY           SKY/WX    TMP DP  RH WIND       PRES   REMARKS
ANTIGO         FLURRIES  19  14  80 W17G28    29.72R WCI   4
SHAWANO        CLOUDY    27  17  65 W15G24    29.78R WCI  16
OCONTO         CLOUDY    27  16  63 SW14G23   29.78R WCI  15
STURGEON BAY   CLOUDY    27  17  66 W22G29    29.77R WCI  13
GREEN BAY      CLOUDY    28  19  69 SW15G25   29.81R WCI  16
MANITOWOC      CLOUDY    28  18  66 W18G24    29.83R WCI  15
APPLETON       CLOUDY    27  16  63 SW17G24   29.80R WCI  14
CLINTONVILLE   CLOUDY    27  18  69 W18       29.80R WCI  13
OSHKOSH        MOCLDY    25  15  66 W10G22    29.83R WCI  15
$$

WIZ032>034-041-042-053>061-070800-
SOUTHWEST WISCONSIN

CITY           SKY/WX    TMP DP  RH WIND       PRES   REMARKS
LA CROSSE      CLOUDY    22  12  65 W14G22    29.93R WCI   9
SPARTA         CLOUDY    21  15  76 W9        29.90R WCI  11
VIROQUA        MOCLDY    19  14  79 W13G25    29.89R WCI   6
BOSCOBEL       CLEAR     24  14  65 W10       29.96R WCI  14
PRAIRIE DU CHI MOCLDY    22  12  66 W10G16    29.99R WCI  11
PLATTEVILLE    PTCLDY    22  16  79 W9        29.97R WCI  11
$$

WIZ056-057-062-063-064-067-068-070800-
SOUTH CENTRAL WISCONSIN

CITY           SKY/WX    TMP DP  RH WIND       PRES   REMARKS
REEDSBURG      CLOUDY    23  16  73 SW16      29.90R WCI  10
BARABOO/DELLS  CLOUDY    23  16  72 W14       29.88R WCI  11
LONE ROCK      CLEAR     24  15  68 W17G24    29.93R WCI  11
MINERAL POINT  CLEAR     23  18  80 SW7       29.94R WCI  15
MADISON        CLEAR     24  14  65 W8G17     29.91R WCI  15
MIDDLETON      NOT AVBL
WATERTOWN      PTCLDY    23  17  78 SW10      29.91R WCI  12
MONROE         CLEAR     23  18  80 SW15      29.94R WCI  10
JANESVILLE     CLEAR     27  18  69 SW10      29.95S WCI  17
$$

WIZ051-052-058>065-066-070>072-070800-
SOUTHEAST WISCONSIN

CITY           SKY/WX    TMP DP  RH WIND       PRES   REMARKS
MILWAUKEE      PTCLDY    27  17  66 W10       29.90R WCI  17
WAUKESHA       MOCLDY    23  18  80 SW10G18   29.92R WCI  12
MILWAUKEE/TIMM CLEAR     27  16  63 W13       29.91R WCI  16
RACINE         CLEAR     26  16  65 W16G23    29.92R WCI  14
BURLINGTON     CLEAR     24  17  75 W12G17    29.93S WCI  13
KENOSHA        CLEAR     26  16  65 W15G28    29.92R WCI  14
FOND DU LAC    MOCLDY    26  15  63 SW15G23   29.86R WCI  14
SHEBOYGAN      CLOUDY    26  17  68 W16G25    29.84S WCI  14
WEST BEND      CLOUDY    27  19  74 W10G22    29.87R WCI  17
JUNEAU         CLEAR     23  15  73 SW14      29.89R WCI  10
$$

LSZ147-162-070800-
LAKE SUPERIOR

STATION/POSITION TIME  TEMP    WIND        PRES    WAVE
                       AIR SEA DIR/SP/G            HT/PER
                 (UTC) (F)     (DEG/KT/KT) (MB)    (FT/S)
DEVILS ISLAND    0700   26     230/ 28/ 34 1002.0R
PORT WING        0630   23     220/ 13/ 22 1003.0R
SAXON HARBOR     0640   23     210/ 11/ 23 1003.7R
$$

LMZ867-665-643>646-070800-
LAKE MICHIGAN

STATION/POSITION TIME  TEMP    WIND        PRES    WAVE
                       AIR SEA DIR/SP/G            HT/PER
                 (UTC) (F)     (DEG/KT/KT) (MB)    (FT/S)
CHAMBERS ISLAND  0630   27     220/ 12/ 23 1006.8S
NORTHPORT PIER   0641   28     260/ 10/ 21 1007.5R
SISTER BAY       0638   30     250/ 25/ 35   N/A
KEWAUNEE LAKESHO 0648   27     340/ 15/ 29 1008.9R
SHEBOYGAN LAKESH 0700   27     250/ 17/ 21 1011.2R
PORT WASHINGTON  0640   28     260/ 11/ 23 1012.2F
MILWAUKEE LAKESH 0630   28     260/ 14/ 20   N/A
KENOSHA   LAKESH 0700   27     260/ 15/ 23 1013.9
$$

TC  - TEMPERATURE IN CELSIUS
VSB - VISIBILITY IN STATUTE MILES
WCI - WIND CHILL INDEX
HX  - HEAT INDEX





USA.gov is the U.S. government's official web portal to all federal, state and local government web resources and services.